| time (UTC) | temp F | wind direction | speed MPH | gust MPH | rain 1hr in | rain 24hr in | rain mn in | humidity % | barometer mb |
| 20260510105527 | 43 | 0 | 0.0 | 2.0 | 0.00 | 0.00 | 0.00 | 60 | 1018.3 |
| 20260510105029 | 43 | 0 | 0.0 | 2.0 | 0.00 | 0.00 | 0.00 | 59 | 1018.2 |
| 20260510104539 | 43 | 0 | 0.0 | 3.0 | 0.00 | 0.00 | 0.00 | 59 | 1018.2 |
| 20260510104028 | 43 | 327 | 0.0 | 3.0 | 0.00 | 0.00 | 0.00 | 58 | 1018.1 |
| 20260510103528 | 43 | 0 | 1.0 | 4.0 | 0.00 | 0.00 | 0.00 | 58 | 1018.0 |
| 20260510103038 | 44 | 0 | 1.0 | 5.0 | 0.00 | 0.00 | 0.00 | 57 | 1017.9 |
| 20260510102528 | 44 | 337 | 2.0 | 5.0 | 0.00 | 0.00 | 0.00 | 57 | 1017.8 |
| 20260510102027 | 44 | 5 | 1.0 | 5.0 | 0.00 | 0.00 | 0.00 | 57 | 1017.8 |
| 20260510101537 | 44 | 31 | 1.0 | 5.0 | 0.00 | 0.00 | 0.00 | 57 | 1017.8 |
| 20260510101028 | 44 | 29 | 1.0 | 5.0 | 0.00 | 0.00 | 0.00 | 56 | 1017.7 |
| 20260510100528 | 44 | 83 | 1.0 | 5.0 | 0.00 | 0.00 | 0.00 | 56 | 1017.7 |
| 20260510100043 | 44 | 299 | 2.0 | 8.0 | 0.00 | 0.00 | 0.00 | 56 | 1017.7 |
| 20260510095528 | 44 | 19 | 2.0 | 8.0 | 0.00 | 0.01 | 0.00 | 56 | 1017.5 |
| 20260510095028 | 44 | 5 | 1.0 | 5.0 | 0.00 | 0.01 | 0.00 | 56 | 1017.4 |
| 20260510094541 | 44 | 306 | 1.0 | 5.0 | 0.00 | 0.01 | 0.00 | 57 | 1017.3 |
| 20260510094028 | 44 | 18 | 1.0 | 5.0 | 0.00 | 0.01 | 0.00 | 57 | 1017.2 |
| 20260510093528 | 44 | 284 | 1.0 | 5.0 | 0.00 | 0.01 | 0.00 | 57 | 1017.2 |
| 20260510093058 | 43 | 298 | 2.0 | 5.0 | 0.00 | 0.01 | 0.00 | 58 | 1017.1 |
| 20260510092528 | 43 | 296 | 0.0 | 3.0 | 0.00 | 0.01 | 0.00 | 58 | 1017.0 |
| 20260510092028 | 43 | 0 | 0.0 | 3.0 | 0.00 | 0.01 | 0.00 | 58 | 1016.9 |
| 20260510091540 | 43 | 321 | 0.0 | 2.0 | 0.00 | 0.01 | 0.00 | 58 | 1016.8 |
| 20260510091028 | 43 | 341 | 0.0 | 2.0 | 0.00 | 0.01 | 0.00 | 57 | 1016.8 |
| 20260510090528 | 44 | 0 | 0.0 | 2.0 | 0.00 | 0.01 | 0.00 | 57 | 1016.7 |
| 20260510090050 | 43 | 0 | 0.0 | 2.0 | 0.00 | 0.01 | 0.00 | 57 | 1016.7 |
| 20260510085528 | 43 | 0 | 0.0 | 2.0 | 0.00 | 0.04 | 0.00 | 58 | 1016.5 |
| 20260510085027 | 43 | 0 | 0.0 | 2.0 | 0.00 | 0.04 | 0.00 | 58 | 1016.6 |
| 20260510084537 | 43 | 0 | 0.0 | 2.0 | 0.00 | 0.04 | 0.00 | 58 | 1016.5 |
| 20260510084028 | 43 | 0 | 0.0 | 2.0 | 0.00 | 0.04 | 0.00 | 59 | 1016.4 |
| 20260510083528 | 43 | 0 | 0.0 | 2.0 | 0.00 | 0.04 | 0.00 | 59 | 1016.4 |
| 20260510083050 | 42 | 342 | 0.0 | 2.0 | 0.00 | 0.04 | 0.00 | 59 | 1016.3 |
| 20260510082528 | 43 | 331 | 0.0 | 2.0 | 0.00 | 0.04 | 0.00 | 59 | 1016.4 |
| 20260510082028 | 43 | 355 | 0.0 | 2.0 | 0.00 | 0.04 | 0.00 | 59 | 1016.3 |
| 20260510081543 | 43 | 0 | 0.0 | 3.0 | 0.00 | 0.04 | 0.00 | 58 | 1016.2 |
| 20260510081029 | 43 | 0 | 0.0 | 3.0 | 0.00 | 0.04 | 0.00 | 58 | 1016.2 |
| 20260510080528 | 43 | 261 | 0.0 | 3.0 | 0.00 | 0.04 | 0.00 | 59 | 1015.9 |
| 20260510080044 | 43 | 234 | 0.0 | 2.0 | 0.00 | 0.04 | 0.00 | 57 | 1015.7 |
| 20260510075526 | 43 | 0 | 0.0 | 4.0 | 0.00 | 0.04 | 0.00 | 57 | 1015.7 |
| 20260510075026 | 44 | 0 | 0.0 | 4.0 | 0.00 | 0.04 | 0.00 | 57 | 1015.9 |
| 20260510074602 | 43 | 0 | 0.0 | 3.0 | 0.00 | 0.04 | 0.00 | 58 | 1016.0 |
| 20260510074026 | 43 | 0 | 0.0 | 2.0 | 0.00 | 0.04 | 0.00 | 58 | 1016.1 |
| 20260510073526 | 44 | 0 | 0.0 | 2.0 | 0.00 | 0.04 | 0.00 | 57 | 1016.1 |
| 20260510073044 | 44 | 0 | 0.0 | 2.0 | 0.00 | 0.04 | 0.00 | 56 | 1016.0 |
| 20260510072527 | 44 | 296 | 0.0 | 3.0 | 0.00 | 0.04 | 0.00 | 56 | 1015.9 |
| 20260510072027 | 45 | 304 | 0.0 | 3.0 | 0.00 | 0.04 | 0.00 | 55 | 1015.9 |
| 20260510071543 | 44 | 260 | 0.0 | 3.0 | 0.00 | 0.04 | 0.00 | 55 | 1015.7 |
| 20260510071026 | 44 | 0 | 0.0 | 3.0 | 0.00 | 0.04 | 0.00 | 56 | 1015.8 |
| 20260510070526 | 44 | 279 | 0.0 | 3.0 | 0.00 | 0.04 | 0.00 | 56 | 1015.8 |
| 20260510070042 | 44 | 278 | 0.0 | 3.0 | 0.00 | 0.04 | 0.00 | 57 | 1015.8 |
| 20260510065529 | 44 | 286 | 0.0 | 4.0 | 0.00 | 0.04 | 0.00 | 58 | 1015.8 |
| 20260510065027 | 44 | 0 | 1.0 | 4.0 | 0.00 | 0.04 | 0.00 | 59 | 1015.7 |
| 20260510064538 | 43 | 192 | 0.0 | 2.0 | 0.00 | 0.04 | 0.00 | 60 | 1015.6 |
| 20260510064027 | 43 | 0 | 0.0 | 2.0 | 0.00 | 0.04 | 0.00 | 60 | 1015.6 |
| 20260510063526 | 44 | 0 | 0.0 | 1.0 | 0.00 | 0.04 | 0.00 | 61 | 1015.7 |
| 20260510063044 | 43 | 193 | 0.0 | 2.0 | 0.00 | 0.04 | 0.00 | 60 | 1015.6 |
| 20260510062525 | 43 | 0 | 0.0 | 2.0 | 0.00 | 0.04 | 0.00 | 59 | 1015.7 |
| 20260510062025 | 44 | 0 | 0.0 | 2.0 | 0.00 | 0.04 | 0.00 | 58 | 1015.5 |
| 20260510061544 | 44 | 0 | 0.0 | 2.0 | 0.00 | 0.04 | 0.00 | 57 | 1015.6 |
| 20260510061027 | 45 | 0 | 0.0 | 2.0 | 0.00 | 0.04 | 0.00 | 56 | 1015.5 |
| 20260510060527 | 44 | 0 | 0.0 | 2.0 | 0.00 | 0.04 | 0.00 | 57 | 1015.5 |
| 20260510060043 | 45 | 0 | 0.0 | 2.0 | 0.00 | 0.04 | 0.00 | 55 | 1015.5 |
| 20260510055527 | 45 | 0 | 0.0 | 2.0 | 0.00 | 0.04 | 0.00 | 54 | 1015.6 |
| 20260510055026 | 45 | 283 | 0.0 | 2.0 | 0.00 | 0.04 | 0.00 | 53 | 1015.6 |
| 20260510054541 | 46 | 0 | 0.0 | 2.0 | 0.00 | 0.04 | 0.00 | 53 | 1015.5 |
| 20260510054026 | 46 | 0 | 0.0 | 2.0 | 0.00 | 0.04 | 0.00 | 53 | 1015.5 |
| 20260510053526 | 46 | 258 | 0.0 | 2.0 | 0.00 | 0.04 | 0.00 | 53 | 1015.5 |
| 20260510053041 | 46 | 261 | 0.0 | 3.0 | 0.00 | 0.04 | 0.00 | 52 | 1015.6 |
| 20260510052526 | 46 | 0 | 0.0 | 3.0 | 0.00 | 0.04 | 0.00 | 52 | 1015.6 |
| 20260510052026 | 46 | 254 | 1.0 | 3.0 | 0.00 | 0.04 | 0.00 | 51 | 1015.5 |
| 20260510051537 | 46 | 0 | 0.0 | 1.0 | 0.00 | 0.04 | 0.00 | 50 | 1015.5 |
| 20260510051026 | 47 | 0 | 0.0 | 2.0 | 0.00 | 0.04 | 0.00 | 49 | 1015.5 |
| 20260510050527 | 47 | 274 | 0.0 | 2.0 | 0.00 | 0.04 | 0.00 | 49 | 1015.6 |
| 20260510050045 | 47 | 0 | 0.0 | 2.0 | 0.00 | 0.04 | 0.00 | 48 | 1015.5 |
| 20260510045530 | 47 | 0 | 0.0 | 2.0 | 0.00 | 0.04 | 0.04 | 47 | 1015.5 |
| 20260510045028 | 48 | 0 | 0.0 | 2.0 | 0.00 | 0.04 | 0.04 | 47 | 1015.5 |
| 20260510044557 | 48 | 0 | 0.0 | 2.0 | 0.00 | 0.04 | 0.04 | 46 | 1015.5 |
| 20260510044028 | 48 | 296 | 0.0 | 2.0 | 0.00 | 0.04 | 0.04 | 46 | 1015.4 |
| 20260510043528 | 48 | 296 | 0.0 | 2.0 | 0.00 | 0.04 | 0.04 | 45 | 1015.5 |
| 20260510043042 | 49 | 0 | 0.0 | 2.0 | 0.00 | 0.04 | 0.04 | 45 | 1015.4 |
| 20260510042529 | 49 | 285 | 0.0 | 3.0 | 0.00 | 0.04 | 0.04 | 45 | 1015.4 |
| 20260510042028 | 49 | 0 | 0.0 | 3.0 | 0.00 | 0.04 | 0.04 | 45 | 1015.4 |
| 20260510041537 | 49 | 298 | 0.0 | 3.0 | 0.00 | 0.04 | 0.04 | 43 | 1015.3 |
| 20260510041030 | 49 | 300 | 0.0 | 3.0 | 0.00 | 0.04 | 0.04 | 43 | 1015.2 |
| 20260510040528 | 50 | 0 | 0.0 | 3.0 | 0.00 | 0.04 | 0.04 | 43 | 1015.2 |
| 20260510040038 | 50 | 282 | 0.0 | 3.0 | 0.00 | 0.04 | 0.04 | 42 | 1015.2 |
| 20260510035527 | 50 | 0 | 0.0 | 3.0 | 0.00 | 0.04 | 0.04 | 42 | 1015.0 |
| 20260510035028 | 50 | 0 | 0.0 | 3.0 | 0.00 | 0.04 | 0.04 | 42 | 1015.1 |
| 20260510034542 | 50 | 290 | 1.0 | 3.0 | 0.00 | 0.04 | 0.04 | 42 | 1015.1 |
| 20260510034028 | 50 | 294 | 1.0 | 3.0 | 0.00 | 0.04 | 0.04 | 42 | 1015.1 |
| 20260510033527 | 50 | 304 | 0.0 | 3.0 | 0.00 | 0.04 | 0.04 | 42 | 1015.0 |
| 20260510033044 | 49 | 321 | 1.0 | 3.0 | 0.00 | 0.04 | 0.04 | 41 | 1015.0 |
| 20260510032528 | 49 | 330 | 1.0 | 3.0 | 0.00 | 0.04 | 0.04 | 42 | 1015.1 |
| 20260510032028 | 49 | 325 | 0.0 | 4.0 | 0.00 | 0.04 | 0.04 | 41 | 1015.0 |
| 20260510031541 | 49 | 333 | 1.0 | 4.0 | 0.00 | 0.04 | 0.04 | 41 | 1015.1 |
| 20260510031028 | 49 | 317 | 1.0 | 3.0 | 0.00 | 0.04 | 0.04 | 41 | 1015.0 |
| 20260510030528 | 49 | 301 | 1.0 | 4.0 | 0.00 | 0.04 | 0.04 | 41 | 1015.1 |
| 20260510030041 | 50 | 307 | 2.0 | 4.0 | 0.00 | 0.04 | 0.04 | 41 | 1015.0 |
| 20260510025528 | 50 | 319 | 2.0 | 5.0 | 0.00 | 0.04 | 0.04 | 40 | 1015.0 |
| 20260510025028 | 50 | 336 | 2.0 | 5.0 | 0.00 | 0.04 | 0.04 | 40 | 1014.8 |
| 20260510024539 | 50 | 302 | 2.0 | 5.0 | 0.00 | 0.04 | 0.04 | 39 | 1014.7 |
| 20260510024027 | 50 | 292 | 2.0 | 6.0 | 0.00 | 0.04 | 0.04 | 39 | 1014.7 |
| 20260510023531 | 50 | 318 | 2.0 | 9.0 | 0.00 | 0.04 | 0.04 | 39 | 1014.5 |
| 20260510023037 | 51 | 269 | 2.0 | 9.0 | 0.00 | 0.04 | 0.04 | 38 | 1014.5 |
| 20260510022528 | 51 | 12 | 4.0 | 9.0 | 0.00 | 0.04 | 0.04 | 38 | 1014.4 |
| 20260510022029 | 51 | 299 | 3.0 | 8.0 | 0.00 | 0.04 | 0.04 | 38 | 1014.3 |
| 20260510021541 | 51 | 323 | 3.0 | 9.0 | 0.00 | 0.04 | 0.04 | 38 | 1014.2 |
| 20260510021028 | 51 | 341 | 3.0 | 9.0 | 0.00 | 0.04 | 0.04 | 38 | 1014.1 |
| 20260510020528 | 51 | 333 | 4.0 | 9.0 | 0.00 | 0.04 | 0.04 | 37 | 1014.0 |
| 20260510020040 | 52 | 360 | 4.0 | 9.0 | 0.00 | 0.04 | 0.04 | 37 | 1014.0 |
| 20260510015529 | 52 | 16 | 3.0 | 12.0 | 0.00 | 0.04 | 0.04 | 37 | 1013.8 |
| 20260510015028 | 52 | 289 | 3.0 | 12.0 | 0.00 | 0.04 | 0.04 | 36 | 1013.6 |
| 20260510014540 | 52 | 331 | 4.0 | 14.0 | 0.00 | 0.04 | 0.04 | 35 | 1013.6 |
| 20260510014028 | 52 | 316 | 5.0 | 14.0 | 0.00 | 0.04 | 0.04 | 35 | 1013.5 |
| 20260510013527 | 52 | 302 | 6.0 | 14.0 | 0.00 | 0.04 | 0.04 | 35 | 1013.4 |
| 20260510013036 | 53 | 306 | 4.0 | 14.0 | 0.00 | 0.04 | 0.04 | 35 | 1013.2 |
| 20260510012527 | 53 | 279 | 6.0 | 14.0 | 0.00 | 0.04 | 0.04 | 34 | 1013.2 |
| 20260510012028 | 53 | 295 | 3.0 | 10.0 | 0.00 | 0.04 | 0.04 | 34 | 1013.2 |
| 20260510011542 | 54 | 320 | 4.0 | 12.0 | 0.00 | 0.04 | 0.04 | 33 | 1013.0 |
| 20260510011029 | 54 | 342 | 4.0 | 12.0 | 0.00 | 0.04 | 0.04 | 33 | 1013.0 |
| 20260510010528 | 54 | 321 | 6.0 | 12.0 | 0.00 | 0.04 | 0.04 | 33 | 1012.8 |
| 20260510010046 | 54 | 319 | 5.0 | 13.0 | 0.00 | 0.04 | 0.04 | 33 | 1012.8 |
| 20260510005528 | 54 | 276 | 6.0 | 15.0 | 0.00 | 0.04 | 0.04 | 33 | 1012.8 |
| 20260510005029 | 55 | 331 | 7.0 | 17.0 | 0.00 | 0.04 | 0.04 | 32 | 1012.6 |
| 20260510004540 | 55 | 313 | 6.0 | 17.0 | 0.00 | 0.04 | 0.04 | 32 | 1012.5 |
| 20260510004028 | 55 | 298 | 8.0 | 16.0 | 0.00 | 0.04 | 0.04 | 32 | 1012.5 |
| 20260510003528 | 55 | 296 | 4.0 | 15.0 | 0.00 | 0.04 | 0.04 | 32 | 1012.4 |
| 20260510003039 | 55 | 38 | 6.0 | 12.0 | 0.00 | 0.04 | 0.04 | 32 | 1012.4 |
| 20260510002527 | 55 | 325 | 6.0 | 13.0 | 0.00 | 0.04 | 0.04 | 33 | 1012.3 |
| 20260510002028 | 55 | 350 | 5.0 | 17.0 | 0.00 | 0.04 | 0.04 | 33 | 1012.4 |
| 20260510001536 | 56 | 338 | 6.0 | 17.0 | 0.00 | 0.04 | 0.04 | 32 | 1012.3 |
| 20260510001028 | 56 | 276 | 10.0 | 17.0 | 0.00 | 0.04 | 0.04 | 31 | 1012.3 |
| 20260510000528 | 57 | 271 | 6.0 | 15.0 | 0.00 | 0.04 | 0.04 | 30 | 1012.2 |
| 20260510000038 | 58 | 325 | 7.0 | 16.0 | 0.00 | 0.04 | 0.04 | 30 | 1012.0 |
| 20260509235527 | 58 | 327 | 4.0 | 16.0 | 0.00 | 0.04 | 0.04 | 31 | 1011.9 |
| 20260509235028 | 57 | 308 | 5.0 | 16.0 | 0.00 | 0.04 | 0.04 | 31 | 1011.9 |
| 20260509234541 | 57 | 345 | 6.0 | 14.0 | 0.00 | 0.04 | 0.04 | 31 | 1011.8 |
| 20260509234028 | 57 | 295 | 6.0 | 14.0 | 0.00 | 0.04 | 0.04 | 31 | 1011.8 |
| 20260509233527 | 57 | 344 | 6.0 | 15.0 | 0.00 | 0.04 | 0.04 | 31 | 1011.8 |
| 20260509233040 | 57 | 312 | 6.0 | 16.0 | 0.00 | 0.04 | 0.04 | 31 | 1011.7 |
| 20260509232528 | 57 | 342 | 8.0 | 18.0 | 0.00 | 0.04 | 0.04 | 31 | 1011.6 |
| 20260509232028 | 57 | 338 | 9.0 | 18.0 | 0.00 | 0.04 | 0.04 | 30 | 1011.6 |
| 20260509231541 | 57 | 74 | 7.0 | 16.0 | 0.00 | 0.04 | 0.04 | 30 | 1011.5 |
| 20260509231028 | 57 | 5 | 8.0 | 19.0 | 0.00 | 0.04 | 0.04 | 32 | 1011.5 |
| 20260509230528 | 57 | 321 | 9.0 | 19.0 | 0.00 | 0.04 | 0.04 | 30 | 1011.6 |
| 20260509230038 | 58 | 339 | 5.0 | 16.0 | 0.00 | 0.04 | 0.04 | 31 | 1011.4 |
| 20260509225528 | 58 | 298 | 7.0 | 18.0 | 0.00 | 0.04 | 0.04 | 30 | 1011.4 |
| 20260509225027 | 58 | 317 | 6.0 | 18.0 | 0.00 | 0.04 | 0.04 | 30 | 1011.3 |
| 20260509224541 | 58 | 305 | 6.0 | 18.0 | 0.00 | 0.04 | 0.04 | 30 | 1011.3 |
| 20260509224028 | 58 | 312 | 6.0 | 16.0 | 0.00 | 0.04 | 0.04 | 30 | 1011.3 |
| 20260509223530 | 58 | 267 | 8.0 | 18.0 | 0.00 | 0.04 | 0.04 | 30 | 1011.2 |
| 20260509223042 | 58 | 334 | 9.0 | 18.0 | 0.00 | 0.04 | 0.04 | 30 | 1011.2 |
| 20260509222527 | 58 | 296 | 10.0 | 18.0 | 0.00 | 0.04 | 0.04 | 30 | 1011.4 |
| 20260509222028 | 58 | 282 | 6.0 | 17.0 | 0.00 | 0.04 | 0.04 | 30 | 1011.2 |
| 20260509221539 | 59 | 24 | 7.0 | 17.0 | 0.00 | 0.04 | 0.04 | 31 | 1011.3 |
| 20260509221027 | 58 | 346 | 8.0 | 16.0 | 0.00 | 0.04 | 0.04 | 31 | 1011.1 |
| 20260509220529 | 58 | 276 | 8.0 | 16.0 | 0.00 | 0.04 | 0.04 | 31 | 1011.1 |
| 20260509220040 | 58 | 5 | 8.0 | 20.0 | 0.00 | 0.04 | 0.04 | 31 | 1011.0 |
| 20260509215528 | 58 | 302 | 8.0 | 20.0 | 0.00 | 0.04 | 0.04 | 30 | 1011.0 |
| 20260509215028 | 59 | 318 | 10.0 | 16.0 | 0.00 | 0.04 | 0.04 | 29 | 1011.0 |
| 20260509214543 | 59 | 317 | 6.0 | 16.0 | 0.00 | 0.04 | 0.04 | 31 | 1011.0 |
| 20260509214029 | 58 | 131 | 8.0 | 16.0 | 0.00 | 0.04 | 0.04 | 31 | 1011.0 |
| 20260509213528 | 58 | 346 | 7.0 | 20.0 | 0.00 | 0.04 | 0.04 | 31 | 1010.9 |
| 20260509213047 | 58 | 344 | 8.0 | 20.0 | 0.00 | 0.04 | 0.04 | 31 | 1011.0 |
| 20260509212527 | 59 | 286 | 7.0 | 20.0 | 0.00 | 0.04 | 0.04 | 31 | 1011.0 |
| 20260509212028 | 58 | 17 | 8.0 | 18.0 | 0.00 | 0.04 | 0.04 | 31 | 1010.8 |
| 20260509211543 | 58 | 319 | 6.0 | 18.0 | 0.00 | 0.04 | 0.04 | 32 | 1010.9 |
| 20260509211028 | 58 | 333 | 7.0 | 18.0 | 0.00 | 0.04 | 0.04 | 32 | 1010.9 |
| 20260509210528 | 58 | 221 | 10.0 | 17.0 | 0.00 | 0.04 | 0.04 | 31 | 1010.8 |
| 20260509210037 | 58 | 11 | 7.0 | 17.0 | 0.00 | 0.04 | 0.04 | 32 | 1010.7 |
| 20260509205528 | 58 | 334 | 6.0 | 17.0 | 0.00 | 0.04 | 0.04 | 31 | 1010.7 |
| 20260509205030 | 58 | 306 | 9.0 | 19.0 | 0.00 | 0.04 | 0.04 | 31 | 1010.7 |
| 20260509204542 | 59 | 344 | 6.0 | 20.0 | 0.00 | 0.04 | 0.04 | 31 | 1010.7 |
| 20260509204028 | 58 | 341 | 9.0 | 20.0 | 0.00 | 0.04 | 0.04 | 30 | 1010.6 |
| 20260509203527 | 59 | 325 | 7.0 | 19.0 | 0.00 | 0.04 | 0.04 | 30 | 1010.7 |
| 20260509203103 | 58 | 51 | 5.0 | 19.0 | 0.00 | 0.04 | 0.04 | 32 | 1010.6 |
| 20260509202528 | 58 | 345 | 9.0 | 19.0 | 0.00 | 0.04 | 0.04 | 33 | 1010.7 |
| 20260509202031 | 58 | 303 | 9.0 | 19.0 | 0.00 | 0.04 | 0.04 | 32 | 1010.7 |
| 20260509201541 | 58 | 288 | 6.0 | 16.0 | 0.00 | 0.04 | 0.04 | 34 | 1010.6 |
| 20260509201028 | 58 | 305 | 8.0 | 17.0 | 0.00 | 0.04 | 0.04 | 32 | 1010.6 |
| 20260509200528 | 58 | 304 | 7.0 | 17.0 | 0.00 | 0.04 | 0.04 | 31 | 1010.6 |
| 20260509200047 | 58 | 17 | 9.0 | 17.0 | 0.00 | 0.04 | 0.04 | 31 | 1010.7 |
| 20260509195527 | 58 | 22 | 7.0 | 17.0 | 0.00 | 0.04 | 0.04 | 32 | 1010.5 |
| 20260509195030 | 58 | 44 | 5.0 | 15.0 | 0.00 | 0.04 | 0.04 | 34 | 1010.5 |
| 20260509194536 | 57 | 9 | 8.0 | 15.0 | 0.00 | 0.04 | 0.04 | 33 | 1010.5 |
| 20260509194028 | 57 | 342 | 4.0 | 16.0 | 0.00 | 0.04 | 0.04 | 35 | 1010.4 |
| 20260509193528 | 57 | 69 | 6.0 | 16.0 | 0.00 | 0.04 | 0.04 | 33 | 1010.4 |
| 20260509193046 | 58 | 5 | 5.0 | 15.0 | 0.00 | 0.04 | 0.04 | 34 | 1010.5 |
| 20260509192527 | 57 | 288 | 5.0 | 16.0 | 0.00 | 0.04 | 0.04 | 33 | 1010.2 |
| 20260509192027 | 57 | 42 | 7.0 | 16.0 | 0.00 | 0.04 | 0.04 | 33 | 1010.4 |
| 20260509191554 | 57 | 335 | 7.0 | 19.0 | 0.00 | 0.04 | 0.04 | 33 | 1010.4 |
| 20260509191030 | 56 | 319 | 5.0 | 19.0 | 0.00 | 0.04 | 0.04 | 35 | 1010.2 |
| 20260509190527 | 56 | 279 | 11.0 | 19.0 | 0.00 | 0.04 | 0.04 | 35 | 1010.3 |
| 20260509190041 | 56 | 30 | 9.0 | 18.0 | 0.00 | 0.04 | 0.04 | 35 | 1010.1 |
| 20260509185528 | 57 | 323 | 8.0 | 17.0 | 0.00 | 0.04 | 0.04 | 33 | 1010.2 |
| 20260509185031 | 56 | 302 | 8.0 | 17.0 | 0.00 | 0.04 | 0.04 | 35 | 1010.0 |
| 20260509184538 | 56 | 340 | 10.0 | 17.0 | 0.00 | 0.04 | 0.04 | 35 | 1010.0 |
| 20260509184028 | 56 | 277 | 8.0 | 16.0 | 0.00 | 0.04 | 0.04 | 35 | 1010.0 |
| 20260509183528 | 56 | 324 | 7.0 | 17.0 | 0.00 | 0.04 | 0.04 | 36 | 1009.8 |
| 20260509183036 | 56 | 300 | 6.0 | 17.0 | 0.00 | 0.04 | 0.04 | 37 | 1010.0 |
| 20260509182527 | 56 | 346 | 8.0 | 17.0 | 0.00 | 0.04 | 0.04 | 35 | 1010.0 |
| 20260509182027 | 56 | 281 | 8.0 | 16.0 | 0.00 | 0.04 | 0.04 | 34 | 1009.9 |
| 20260509181543 | 56 | 25 | 6.0 | 21.0 | 0.00 | 0.04 | 0.04 | 37 | 1009.9 |
| 20260509181028 | 55 | 68 | 7.0 | 21.0 | 0.00 | 0.04 | 0.04 | 36 | 1009.9 |
| 20260509180527 | 55 | 48 | 10.0 | 21.0 | 0.00 | 0.04 | 0.04 | 36 | 1010.0 |
| 20260509180042 | 56 | 329 | 8.0 | 16.0 | 0.00 | 0.04 | 0.04 | 35 | 1009.8 |
| 20260509175527 | 56 | 5 | 6.0 | 14.0 | 0.00 | 0.04 | 0.04 | 38 | 1009.8 |
| 20260509175028 | 55 | 21 | 7.0 | 17.0 | 0.00 | 0.04 | 0.04 | 37 | 1009.8 |
| 20260509174541 | 55 | 288 | 7.0 | 17.0 | 0.00 | 0.04 | 0.04 | 37 | 1009.9 |
| 20260509174032 | 54 | 313 | 6.0 | 15.0 | 0.00 | 0.04 | 0.04 | 36 | 1009.7 |
| 20260509173529 | 55 | 319 | 6.0 | 15.0 | 0.00 | 0.04 | 0.04 | 37 | 1009.6 |
| 20260509173038 | 54 | 295 | 9.0 | 19.0 | 0.00 | 0.04 | 0.04 | 37 | 1009.7 |
| 20260509172528 | 54 | 22 | 8.0 | 19.0 | 0.00 | 0.04 | 0.04 | 38 | 1009.5 |
| 20260509172028 | 54 | 360 | 6.0 | 19.0 | 0.00 | 0.04 | 0.04 | 39 | 1009.7 |
| 20260509171537 | 54 | 348 | 7.0 | 15.0 | 0.00 | 0.04 | 0.04 | 39 | 1009.7 |
| 20260509171028 | 54 | 266 | 6.0 | 14.0 | 0.00 | 0.04 | 0.04 | 39 | 1009.6 |
| 20260509170528 | 54 | 271 | 7.0 | 18.0 | 0.00 | 0.04 | 0.04 | 39 | 1009.7 |
| 20260509170046 | 54 | 292 | 9.0 | 18.0 | 0.00 | 0.04 | 0.04 | 39 | 1009.6 |
| 20260509165527 | 54 | 360 | 5.0 | 13.0 | 0.00 | 0.04 | 0.04 | 42 | 1009.5 |
| 20260509165027 | 54 | 334 | 5.0 | 18.0 | 0.00 | 0.04 | 0.04 | 41 | 1009.5 |
| 20260509164545 | 53 | 335 | 6.0 | 18.0 | 0.00 | 0.04 | 0.04 | 42 | 1009.4 |
| 20260509164027 | 53 | 43 | 8.0 | 18.0 | 0.00 | 0.04 | 0.04 | 40 | 1009.3 |
| 20260509163531 | 53 | 302 | 7.0 | 18.0 | 0.00 | 0.04 | 0.04 | 42 | 1009.3 |
| 20260509163040 | 53 | 308 | 8.0 | 19.0 | 0.00 | 0.04 | 0.04 | 42 | 1009.3 |
| 20260509162527 | 53 | 275 | 7.0 | 19.0 | 0.00 | 0.04 | 0.04 | 42 | 1009.2 |
| 20260509162027 | 52 | 317 | 6.0 | 18.0 | 0.00 | 0.04 | 0.04 | 43 | 1009.1 |
| 20260509161538 | 52 | 323 | 9.0 | 18.0 | 0.00 | 0.04 | 0.04 | 43 | 1009.0 |
| 20260509161027 | 52 | 40 | 10.0 | 18.0 | 0.00 | 0.04 | 0.04 | 42 | 1009.1 |
| 20260509160529 | 52 | 309 | 9.0 | 18.0 | 0.00 | 0.04 | 0.04 | 44 | 1008.9 |
| 20260509160044 | 52 | 343 | 9.0 | 19.0 | 0.00 | 0.04 | 0.04 | 43 | 1008.9 |
| 20260509155527 | 52 | 349 | 7.0 | 19.0 | 0.00 | 0.04 | 0.04 | 44 | 1008.8 |
| 20260509155027 | 52 | 310 | 7.0 | 15.0 | 0.00 | 0.04 | 0.04 | 46 | 1008.7 |
| 20260509154541 | 51 | 360 | 7.0 | 16.0 | 0.00 | 0.04 | 0.04 | 47 | 1008.6 |
| 20260509154028 | 51 | 309 | 8.0 | 18.0 | 0.00 | 0.04 | 0.04 | 48 | 1008.6 |
| 20260509153527 | 51 | 275 | 8.0 | 18.0 | 0.00 | 0.04 | 0.04 | 49 | 1008.5 |
| 20260509153044 | 51 | 310 | 10.0 | 18.0 | 0.00 | 0.04 | 0.04 | 48 | 1008.5 |
| 20260509152527 | 51 | 338 | 5.0 | 16.0 | 0.00 | 0.04 | 0.04 | 50 | 1008.3 |
| 20260509152028 | 51 | 304 | 7.0 | 16.0 | 0.00 | 0.04 | 0.04 | 50 | 1008.3 |
| 20260509151539 | 50 | 14 | 7.0 | 17.0 | 0.00 | 0.04 | 0.04 | 50 | 1008.1 |
| 20260509151027 | 50 | 293 | 8.0 | 18.0 | 0.00 | 0.04 | 0.04 | 51 | 1008.0 |
| 20260509150528 | 50 | 344 | 8.0 | 20.0 | 0.00 | 0.04 | 0.04 | 51 | 1008.0 |
| 20260509150040 | 50 | 5 | 7.0 | 20.0 | 0.00 | 0.04 | 0.04 | 51 | 1008.1 |
| 20260509145528 | 50 | 350 | 7.0 | 16.0 | 0.00 | 0.04 | 0.04 | 52 | 1007.9 |
| 20260509145027 | 50 | 286 | 8.0 | 16.0 | 0.00 | 0.04 | 0.04 | 53 | 1007.8 |
| 20260509144544 | 50 | 17 | 7.0 | 15.0 | 0.00 | 0.04 | 0.04 | 55 | 1007.6 |
| 20260509144025 | 49 | 321 | 5.0 | 15.0 | 0.00 | 0.04 | 0.04 | 56 | 1007.7 |
| 20260509143528 | 49 | 360 | 6.0 | 16.0 | 0.00 | 0.04 | 0.04 | 57 | 1007.7 |
| 20260509143044 | 49 | 319 | 7.0 | 16.0 | 0.00 | 0.04 | 0.04 | 56 | 1007.7 |
| 20260509142530 | 49 | 319 | 4.0 | 13.0 | 0.00 | 0.04 | 0.04 | 60 | 1007.6 |
| 20260509142028 | 49 | 360 | 6.0 | 16.0 | 0.00 | 0.04 | 0.04 | 60 | 1007.5 |
| 20260509141542 | 48 | 9 | 6.0 | 16.0 | 0.00 | 0.04 | 0.04 | 61 | 1007.5 |
| 20260509141027 | 48 | 298 | 6.0 | 16.0 | 0.00 | 0.04 | 0.04 | 63 | 1007.4 |
| 20260509140527 | 48 | 311 | 8.0 | 17.0 | 0.00 | 0.04 | 0.04 | 63 | 1007.4 |
| 20260509140039 | 48 | 48 | 7.0 | 17.0 | 0.00 | 0.04 | 0.04 | 63 | 1007.3 |
| 20260509135527 | 48 | 311 | 6.0 | 15.0 | 0.00 | 0.04 | 0.04 | 64 | 1007.1 |
| 20260509135028 | 48 | 326 | 4.0 | 14.0 | 0.00 | 0.04 | 0.04 | 64 | 1007.0 |
| 20260509134537 | 48 | 322 | 5.0 | 14.0 | 0.00 | 0.04 | 0.04 | 65 | 1007.0 |
| 20260509134027 | 48 | 338 | 5.0 | 14.0 | 0.00 | 0.04 | 0.04 | 65 | 1006.8 |
| 20260509133527 | 47 | 320 | 5.0 | 12.0 | 0.00 | 0.04 | 0.04 | 66 | 1006.8 |
| 20260509133039 | 47 | 302 | 5.0 | 12.0 | 0.00 | 0.04 | 0.04 | 68 | 1006.7 |
| 20260509132527 | 47 | 337 | 5.0 | 15.0 | 0.00 | 0.04 | 0.04 | 69 | 1006.7 |
| 20260509132026 | 47 | 317 | 5.0 | 15.0 | 0.00 | 0.04 | 0.04 | 70 | 1006.6 |
| 20260509131548 | 47 | 323 | 7.0 | 16.0 | 0.00 | 0.04 | 0.04 | 70 | 1006.6 |
| 20260509131027 | 47 | 26 | 6.0 | 16.0 | 0.00 | 0.04 | 0.04 | 72 | 1006.5 |
| 20260509130529 | 46 | 274 | 6.0 | 12.0 | 0.00 | 0.04 | 0.04 | 72 | 1006.4 |
| 20260509130055 | 46 | 273 | 7.0 | 12.0 | 0.00 | 0.04 | 0.04 | 73 | 1006.4 |
| 20260509125530 | 46 | 289 | 6.0 | 13.0 | 0.00 | 0.04 | 0.04 | 73 | 1006.2 |
| 20260509125028 | 46 | 291 | 5.0 | 16.0 | 0.00 | 0.04 | 0.04 | 75 | 1006.2 |
| 20260509124542 | 46 | 24 | 7.0 | 16.0 | 0.00 | 0.04 | 0.04 | 76 | 1006.1 |
| 20260509124027 | 46 | 18 | 6.0 | 15.0 | 0.00 | 0.04 | 0.04 | 77 | 1006.1 |
| 20260509123527 | 45 | 316 | 4.0 | 12.0 | 0.00 | 0.04 | 0.04 | 78 | 1006.0 |
| 20260509123039 | 45 | 5 | 4.0 | 12.0 | 0.00 | 0.04 | 0.04 | 79 | 1005.8 |
| 20260509122527 | 45 | 25 | 5.0 | 12.0 | 0.00 | 0.04 | 0.04 | 80 | 1005.9 |
| 20260509122027 | 45 | 326 | 4.0 | 12.0 | 0.00 | 0.04 | 0.04 | 81 | 1005.7 |
| 20260509121537 | 44 | 292 | 6.0 | 12.0 | 0.00 | 0.04 | 0.04 | 82 | 1005.7 |
| 20260509121027 | 44 | 320 | 4.0 | 11.0 | 0.00 | 0.04 | 0.04 | 83 | 1005.7 |
| 20260509120529 | 45 | 320 | 4.0 | 10.0 | 0.00 | 0.04 | 0.04 | 84 | 1005.5 |
| 20260509120036 | 45 | 302 | 4.0 | 10.0 | 0.00 | 0.04 | 0.04 | 85 | 1005.5 |
| 20260509115527 | 45 | 267 | 3.0 | 9.0 | 0.00 | 0.04 | 0.04 | 85 | 1005.4 |
| 20260509115031 | 44 | 331 | 2.0 | 8.0 | 0.00 | 0.04 | 0.04 | 85 | 1005.2 |
| 20260509114542 | 44 | 327 | 2.0 | 9.0 | 0.00 | 0.04 | 0.04 | 85 | 1005.2 |
| 20260509114029 | 44 | 294 | 3.0 | 9.0 | 0.00 | 0.04 | 0.04 | 85 | 1005.1 |
| 20260509113528 | 45 | 298 | 4.0 | 10.0 | 0.00 | 0.04 | 0.04 | 85 | 1004.9 |
| 20260509113042 | 45 | 302 | 3.0 | 10.0 | 0.00 | 0.04 | 0.04 | 85 | 1004.9 |
| 20260509112527 | 45 | 308 | 3.0 | 10.0 | 0.00 | 0.04 | 0.04 | 85 | 1004.7 |
| 20260509112028 | 45 | 360 | 3.0 | 10.0 | 0.00 | 0.04 | 0.04 | 85 | 1004.7 |
| 20260509111541 | 45 | 324 | 4.0 | 11.0 | 0.00 | 0.04 | 0.04 | 85 | 1004.6 |
| 20260509111027 | 46 | 343 | 3.0 | 12.0 | 0.00 | 0.04 | 0.04 | 84 | 1004.5 |
| 20260509110528 | 46 | 352 | 5.0 | 12.0 | 0.00 | 0.04 | 0.04 | 84 | 1004.5 |
| 20260509110038 | 46 | 316 | 6.0 | 13.0 | 0.00 | 0.04 | 0.04 | 84 | 1004.3 |